Weather History for Boerne Stage Field, TX

Change the Weather History Date:

Sunday, March 30, 2014

  Actual Average (KSAT) Record (KSAT)
Temperature  
Mean Temperature 58 °F 65 °F  
Max Temperature 78 °F 77 °F 97 °F (1946)
Min Temperature 37 °F 54 °F 29 °F (1944)
Degree Days  
Heating Degree Days 8 3  
Month to date heating degree days 150  
Since 1 July heating degree days 1451  
Cooling Degree Days 0 3  
Month to date cooling degree days 63  
Year to date cooling degree days 89  
Growing Degree Days 8 (Base 50)    
Moisture  
Dew Point 39 °F    
Average Humidity 52    
Maximum Humidity 87    
Minimum Humidity 26    
Precipitation  
Precipitation 0.00 in 0.06 in 2.05 in (1965)
Month to date precipitation 2.25  
Year to date precipitation 5.80  
Snow  
Snow 0.00 in - - ()
Month to date snowfall  
Since 1 July snowfall  
Snow Depth -    
Sea Level Pressure  
Sea Level Pressure 30.14 in    
Wind  
Wind Speed 6 mph (SSE)    
Max Wind Speed 17 mph    
Max Gust Speed 25 mph    
Visibility 10 miles    
Events      
T = Trace of Precipitation, MM = Missing Value Source: NWS Daily Summary

Daily Weather History Graph

Daily Weather History Graph

Search for Another Location

Airport:

Trip Planner

Search our weather history database for the weather conditions in past years. The results will help you decide how hot, cold, wet, or windy it might be!

Date:

Astronomy

Mar. 30, 2014 Rise Set
Actual Time 7:26 AM CDT 7:52 PM CDT
Civil Twilight 7:02 AM CDT 8:16 PM CDT
Nautical Twilight 6:34 AM CDT 8:44 PM CDT
Astronomical Twilight 6:06 AM CDT 9:12 PM CDT
Moon 7:13 AM CDT (3/30) 8:03 PM CDT (3/30)
Length of Visible Light 13h 13m
Length of Day
12h 25m
Waning Crescent, 0% of the Moon is Illuminated
Mar 30
Waning Crescent
Mar 30
New
Apr 7
First Quarter
Apr 15
Full
Apr 22
Last Quarter

Hourly Weather History & Observations

Time (CDT) Temp. Dew Point Humidity Pressure Visibility Wind Dir Wind Speed Gust Speed Precip Events Conditions
12:15 AM 46.4 °F 32.0 °F 57% 30.24 in 10.0 mi Calm Calm - N/A   Clear
12:35 AM 44.6 °F 33.8 °F 66% 30.24 in 10.0 mi Calm Calm - N/A   Clear
12:55 AM 44.6 °F 33.8 °F 66% 30.24 in 10.0 mi Calm Calm - N/A   Clear
1:15 AM 44.6 °F 33.8 °F 66% 30.24 in 10.0 mi Calm Calm - N/A   Clear
1:35 AM 44.6 °F 33.8 °F 66% 30.24 in 10.0 mi Calm Calm - N/A   Clear
1:55 AM 42.8 °F 33.8 °F 70% 30.23 in 10.0 mi Calm Calm - N/A   Clear
2:15 AM 42.8 °F 33.8 °F 70% 30.23 in 10.0 mi Calm Calm - N/A   Clear
2:35 AM 42.8 °F 33.8 °F 70% 30.23 in 10.0 mi Calm Calm - N/A   Clear
2:55 AM 42.8 °F 33.8 °F 70% 30.22 in 10.0 mi Calm Calm - N/A   Clear
3:15 AM 42.8 °F 33.8 °F 70% 30.21 in 10.0 mi Calm Calm - N/A   Clear
3:35 AM 41.0 °F 33.8 °F 76% 30.21 in 10.0 mi Calm Calm - N/A   Clear
3:55 AM 41.0 °F 33.8 °F 76% 30.20 in 10.0 mi Calm Calm - N/A   Clear
4:15 AM 41.0 °F 33.8 °F 76% 30.20 in 10.0 mi Calm Calm - N/A   Clear
4:35 AM 41.0 °F 33.8 °F 76% 30.20 in 10.0 mi Calm Calm - N/A   Clear
4:55 AM 41.0 °F 33.8 °F 76% 30.19 in 10.0 mi Calm Calm - N/A   Clear
5:15 AM 39.2 °F 33.8 °F 81% 30.20 in 10.0 mi Calm Calm - N/A   Clear
5:35 AM 41.0 °F 33.8 °F 76% 30.20 in 10.0 mi Calm Calm - N/A   Clear
5:55 AM 41.0 °F 33.8 °F 76% 30.20 in 10.0 mi Calm Calm - N/A   Clear
6:15 AM 39.2 °F 33.8 °F 81% 30.20 in 10.0 mi Calm Calm - N/A   Clear
6:35 AM 39.2 °F 33.8 °F 81% 30.22 in 10.0 mi Calm Calm - N/A   Clear
6:55 AM 39.2 °F 33.8 °F 81% 30.22 in 10.0 mi Calm Calm - N/A   Clear
7:15 AM 39.2 °F 33.8 °F 81% 30.22 in 10.0 mi Calm Calm - N/A   Clear
7:35 AM 37.4 °F 33.8 °F 87% 30.22 in 10.0 mi Calm Calm - N/A   Clear
7:55 AM 41.0 °F 35.6 °F 81% 30.22 in 10.0 mi Calm Calm - N/A   Clear
8:15 AM 42.8 °F 37.4 °F 81% 30.22 in 10.0 mi Calm Calm - N/A   Clear
8:35 AM 46.4 °F 39.2 °F 76% 30.22 in 10.0 mi Calm Calm - N/A   Clear
8:55 AM 55.4 °F 41.0 °F 58% 30.22 in 10.0 mi SSE 5.8 mph - N/A   Clear
9:15 AM 59.0 °F 37.4 °F 45% 30.23 in 10.0 mi SSE 9.2 mph - N/A   Clear
9:35 AM 60.8 °F 37.4 °F 42% 30.23 in 10.0 mi SSE 10.4 mph 16.1 mph N/A   Clear
9:55 AM 62.6 °F 37.4 °F 39% 30.23 in 10.0 mi SE 16.1 mph 20.7 mph N/A   Clear
10:15 AM 64.4 °F 35.6 °F 34% 30.23 in 10.0 mi SSE 13.8 mph 17.3 mph N/A   Clear
10:35 AM 66.2 °F 35.6 °F 32% 30.23 in 10.0 mi SSE 16.1 mph 21.9 mph N/A   Clear
10:55 AM 68.0 °F 35.6 °F 30% 30.23 in 10.0 mi SE 13.8 mph 21.9 mph N/A   Clear
11:15 AM 68.0 °F 35.6 °F 30% 30.22 in 10.0 mi South 15.0 mph 21.9 mph N/A   Clear
11:35 AM 69.8 °F 37.4 °F 31% 30.21 in 10.0 mi SSE 16.1 mph - N/A   Clear
11:55 AM 69.8 °F 39.2 °F 33% 30.20 in 10.0 mi South 15.0 mph 19.6 mph N/A   Clear
12:15 PM 69.8 °F 41.0 °F 35% 30.19 in 10.0 mi South 13.8 mph 23.0 mph N/A   Clear
12:35 PM 71.6 °F 41.0 °F 33% 30.18 in 10.0 mi SSE 11.5 mph 18.4 mph N/A   Clear
12:55 PM 71.6 °F 41.0 °F 33% 30.17 in 10.0 mi SSE 12.7 mph 19.6 mph N/A   Clear
1:15 PM 73.4 °F 41.0 °F 31% 30.16 in 10.0 mi South 11.5 mph 19.6 mph N/A   Clear
1:35 PM 73.4 °F 41.0 °F 31% 30.15 in 10.0 mi SSE 11.5 mph 20.7 mph N/A   Clear
1:55 PM 75.2 °F 42.8 °F 31% 30.14 in 10.0 mi SSE 12.7 mph 17.3 mph N/A   Clear
2:15 PM 77.0 °F 42.8 °F 29% 30.13 in 10.0 mi SSE 15.0 mph 19.6 mph N/A   Clear
2:35 PM 77.0 °F 41.0 °F 28% 30.11 in 10.0 mi SE 13.8 mph 24.2 mph N/A   Clear
2:55 PM 77.0 °F 41.0 °F 28% 30.10 in 10.0 mi SSE 15.0 mph 25.3 mph N/A   Clear
3:15 PM 77.0 °F 41.0 °F 28% 30.08 in 10.0 mi SSE 17.3 mph 23.0 mph N/A   Clear
3:35 PM 77.0 °F 42.8 °F 29% 30.07 in 10.0 mi South 15.0 mph 21.9 mph N/A   Clear
3:55 PM 77.0 °F 41.0 °F 28% 30.06 in 10.0 mi SSE 16.1 mph 23.0 mph N/A   Clear
4:15 PM 78.8 °F 42.8 °F 28% 30.05 in 10.0 mi SSE 16.1 mph 21.9 mph N/A   Clear
4:35 PM 77.0 °F 42.8 °F 29% 30.04 in 10.0 mi South 17.3 mph 23.0 mph N/A   Clear
4:55 PM 77.0 °F 41.0 °F 28% 30.03 in 10.0 mi South 17.3 mph 21.9 mph N/A   Clear
5:15 PM 77.0 °F 42.8 °F 29% 30.03 in 10.0 mi SSE 16.1 mph 23.0 mph N/A   Clear
5:35 PM 77.0 °F 42.8 °F 29% 30.01 in 10.0 mi South 13.8 mph 21.9 mph N/A   Clear
5:55 PM 77.0 °F 41.0 °F 28% 30.01 in 10.0 mi South 17.3 mph 23.0 mph N/A   Clear
6:15 PM 77.0 °F 39.2 °F 26% 30.01 in 10.0 mi South 13.8 mph 24.2 mph N/A   Clear
6:35 PM 75.2 °F 41.0 °F 29% 30.01 in 10.0 mi South 17.3 mph 21.9 mph N/A   Clear
6:55 PM 73.4 °F 41.0 °F 31% 30.02 in 10.0 mi SSE 11.5 mph 19.6 mph N/A   Clear
7:15 PM 71.6 °F 41.0 °F 33% 30.01 in 10.0 mi SSE 12.7 mph 19.6 mph N/A   Clear
7:35 PM 71.6 °F 42.8 °F 35% 30.01 in 10.0 mi SSE 16.1 mph 21.9 mph N/A   Clear
7:55 PM 69.8 °F 48.2 °F 46% 30.03 in 10.0 mi SE 17.3 mph 23.0 mph N/A   Clear
8:15 PM 68.0 °F 48.2 °F 49% 30.03 in 10.0 mi SSE 13.8 mph 21.9 mph N/A   Clear
8:35 PM 66.2 °F 46.4 °F 49% 30.03 in 10.0 mi SSE 12.7 mph 24.2 mph N/A   Clear
8:55 PM 64.4 °F 46.4 °F 52% 30.03 in 10.0 mi SSE 16.1 mph 23.0 mph N/A   Clear
9:15 PM 64.4 °F 46.4 °F 52% 30.04 in 10.0 mi SSE 15.0 mph 24.2 mph N/A   Clear
9:35 PM 62.6 °F 46.4 °F 55% 30.05 in 10.0 mi SSE 16.1 mph 19.6 mph N/A   Clear
9:55 PM 62.6 °F 46.4 °F 55% 30.05 in 10.0 mi SSE 13.8 mph 21.9 mph N/A   Clear
10:15 PM 62.6 °F 46.4 °F 55% 30.06 in 10.0 mi SSE 13.8 mph 21.9 mph N/A   Clear
10:35 PM 60.8 °F 48.2 °F 63% 30.05 in 10.0 mi SSE 13.8 mph 21.9 mph N/A   Clear
10:55 PM 60.8 °F 50.0 °F 68% 30.06 in 10.0 mi SSE 10.4 mph 21.9 mph N/A   Clear
11:15 PM 60.8 °F 51.8 °F 72% 30.05 in 10.0 mi SSE 12.7 mph 19.6 mph N/A   Mostly Cloudy
11:35 PM 60.8 °F 51.8 °F 72% 30.04 in 10.0 mi SSE 11.5 mph - N/A   Overcast
11:55 PM 60.8 °F 51.8 °F 72% 30.04 in 10.0 mi SSE 16.1 mph 23.0 mph N/A   Overcast